﻿10431,2021/08/08 16:29:38.771,667
10432,2021/08/08 16:29:43.771,668
10433,2021/08/08 16:29:48.771,668
10434,2021/08/08 16:29:53.771,668
10435,2021/08/08 16:29:58.778,668
10436,2021/08/08 16:30:03.772,668
10437,2021/08/08 16:30:08.782,669
10438,2021/08/08 16:30:13.789,671
10439,2021/08/08 16:30:18.786,672
10440,2021/08/08 16:30:23.794,673
10441,2021/08/08 16:30:28.784,674
10442,2021/08/08 16:30:33.788,675
10443,2021/08/08 16:30:38.773,675
10444,2021/08/08 16:30:43.774,677
10445,2021/08/08 16:30:48.791,678
10446,2021/08/08 16:30:53.772,679
10447,2021/08/08 16:30:58.780,680
10448,2021/08/08 16:31:03.782,681
10449,2021/08/08 16:31:08.772,682
10450,2021/08/08 16:31:13.787,682
10451,2021/08/08 16:31:18.770,683
10452,2021/08/08 16:31:23.790,684
10453,2021/08/08 16:31:28.787,684
10454,2021/08/08 16:31:33.785,685
10455,2021/08/08 16:31:38.788,686
10456,2021/08/08 16:31:43.770,686
10457,2021/08/08 16:31:48.793,687
10458,2021/08/08 16:31:53.783,688
10459,2021/08/08 16:31:58.781,689
10460,2021/08/08 16:32:03.785,690
10461,2021/08/08 16:32:08.787,691
10462,2021/08/08 16:32:13.784,692
10463,2021/08/08 16:32:18.770,692
10464,2021/08/08 16:32:23.783,692
10465,2021/08/08 16:32:28.787,692
10466,2021/08/08 16:32:33.783,692
10467,2021/08/08 16:32:38.788,692
10468,2021/08/08 16:32:43.784,692
10469,2021/08/08 16:32:48.785,691
10470,2021/08/08 16:32:53.789,691
10471,2021/08/08 16:32:58.778,692
10472,2021/08/08 16:33:03.771,691
10473,2021/08/08 16:33:08.787,692
10474,2021/08/08 16:33:13.789,692
10475,2021/08/08 16:33:18.786,692
10476,2021/08/08 16:33:23.785,691
10477,2021/08/08 16:33:28.774,691
10478,2021/08/08 16:33:33.768,691
10479,2021/08/08 16:33:38.789,691
10480,2021/08/08 16:33:43.781,691
10481,2021/08/08 16:33:48.783,691
10482,2021/08/08 16:33:53.793,691
10483,2021/08/08 16:33:58.783,691
10484,2021/08/08 16:34:03.778,692
10485,2021/08/08 16:34:08.793,692
10486,2021/08/08 16:34:13.789,692
10487,2021/08/08 16:34:18.786,692
10488,2021/08/08 16:34:23.777,692
10489,2021/08/08 16:34:28.788,692
10490,2021/08/08 16:34:33.770,692
10491,2021/08/08 16:34:38.772,692
10492,2021/08/08 16:34:43.783,692
10493,2021/08/08 16:34:48.788,692
10494,2021/08/08 16:34:53.791,692
10495,2021/08/08 16:34:58.771,692
10496,2021/08/08 16:35:03.789,692
10497,2021/08/08 16:35:08.783,692
10498,2021/08/08 16:35:13.782,692
10499,2021/08/08 16:35:18.783,693
10500,2021/08/08 16:35:23.787,693
10501,2021/08/08 16:35:28.784,694
10502,2021/08/08 16:35:33.771,694
10503,2021/08/08 16:35:38.789,695
10504,2021/08/08 16:35:43.784,695
10505,2021/08/08 16:35:48.771,696
10506,2021/08/08 16:35:53.791,697
10507,2021/08/08 16:35:58.789,698
10508,2021/08/08 16:36:03.768,699
10509,2021/08/08 16:36:08.771,700
10510,2021/08/08 16:36:13.781,701
10511,2021/08/08 16:36:18.791,702
10512,2021/08/08 16:36:23.769,703
10513,2021/08/08 16:36:28.789,704
10514,2021/08/08 16:36:33.769,705
10515,2021/08/08 16:36:38.769,706
10516,2021/08/08 16:36:43.791,706
10517,2021/08/08 16:36:48.798,706
10518,2021/08/08 16:36:53.784,707
10519,2021/08/08 16:36:58.781,707
10520,2021/08/08 16:37:03.774,708
10521,2021/08/08 16:37:08.790,709
10522,2021/08/08 16:37:13.787,709
10523,2021/08/08 16:37:18.782,709
10524,2021/08/08 16:37:23.787,709
10525,2021/08/08 16:37:28.793,709
10526,2021/08/08 16:37:33.772,710
10527,2021/08/08 16:37:38.790,710
10528,2021/08/08 16:37:43.805,710
10529,2021/08/08 16:37:48.792,711
10530,2021/08/08 16:37:53.820,711
10531,2021/08/08 16:37:58.759,711
10532,2021/08/08 16:38:03.772,712
10533,2021/08/08 16:38:08.774,712
10534,2021/08/08 16:38:13.768,712
10535,2021/08/08 16:38:18.774,713
10536,2021/08/08 16:38:23.771,713
10537,2021/08/08 16:38:28.775,714
10538,2021/08/08 16:38:33.772,714
10539,2021/08/08 16:38:38.772,715
10540,2021/08/08 16:38:43.772,715
10541,2021/08/08 16:38:48.780,716
10542,2021/08/08 16:38:53.767,716
10543,2021/08/08 16:38:58.790,717
10544,2021/08/08 16:39:03.788,718
10545,2021/08/08 16:39:08.787,718
10546,2021/08/08 16:39:13.802,718
10547,2021/08/08 16:39:18.766,718
10548,2021/08/08 16:39:23.777,718
10549,2021/08/08 16:39:28.841,719
10550,2021/08/08 16:39:33.771,719
10551,2021/08/08 16:39:38.811,721
10552,2021/08/08 16:39:43.793,723
10553,2021/08/08 16:39:48.775,725
10554,2021/08/08 16:39:53.768,726
10555,2021/08/08 16:39:58.790,728
10556,2021/08/08 16:40:03.782,728
10557,2021/08/08 16:40:08.813,730
10558,2021/08/08 16:40:13.770,731
10559,2021/08/08 16:40:18.770,730
10560,2021/08/08 16:40:23.769,731
10561,2021/08/08 16:40:28.774,731
10562,2021/08/08 16:40:33.776,731
10563,2021/08/08 16:40:38.819,731
10564,2021/08/08 16:40:43.762,732
10565,2021/08/08 16:40:48.776,733
10566,2021/08/08 16:40:53.792,733
10567,2021/08/08 16:40:58.780,733
10568,2021/08/08 16:41:03.789,734
10569,2021/08/08 16:41:08.764,735
10570,2021/08/08 16:41:13.806,735
10571,2021/08/08 16:41:18.771,736
10572,2021/08/08 16:41:23.810,736
10573,2021/08/08 16:41:28.849,736
10574,2021/08/08 16:41:33.861,737
10575,2021/08/08 16:41:38.770,736
10576,2021/08/08 16:41:43.789,737
10577,2021/08/08 16:41:48.776,737
10578,2021/08/08 16:41:53.774,736
10579,2021/08/08 16:41:58.847,737
10580,2021/08/08 16:42:03.826,737
10581,2021/08/08 16:42:08.832,737
10582,2021/08/08 16:42:13.786,737
10583,2021/08/08 16:42:18.776,737
10584,2021/08/08 16:42:23.790,737
10585,2021/08/08 16:42:28.783,737
10586,2021/08/08 16:42:33.781,737
10587,2021/08/08 16:42:38.779,737
10588,2021/08/08 16:42:43.878,736
10589,2021/08/08 16:42:48.775,737
10590,2021/08/08 16:42:53.944,737
10591,2021/08/08 16:42:58.772,737
10592,2021/08/08 16:43:03.762,737
10593,2021/08/08 16:43:08.781,737
10594,2021/08/08 16:43:13.754,737
10595,2021/08/08 16:43:18.779,737
10596,2021/08/08 16:43:23.768,737
10597,2021/08/08 16:43:28.774,737
10598,2021/08/08 16:43:33.818,737
10599,2021/08/08 16:43:38.810,737
10600,2021/08/08 16:43:43.767,737
10601,2021/08/08 16:43:48.813,737
10602,2021/08/08 16:43:53.781,737
10603,2021/08/08 16:43:58.771,738
10604,2021/08/08 16:44:03.772,738
10605,2021/08/08 16:44:08.772,738
10606,2021/08/08 16:44:13.770,739
10607,2021/08/08 16:44:18.788,739
10608,2021/08/08 16:44:23.783,739
10609,2021/08/08 16:44:28.768,740
10610,2021/08/08 16:44:33.781,740
10611,2021/08/08 16:44:38.769,741
10612,2021/08/08 16:44:43.806,741
10613,2021/08/08 16:44:48.782,741
10614,2021/08/08 16:44:53.772,741
10615,2021/08/08 16:44:58.769,741
10616,2021/08/08 16:45:03.787,742
10617,2021/08/08 16:45:08.759,742
10618,2021/08/08 16:45:13.815,743
10619,2021/08/08 16:45:18.776,743
10620,2021/08/08 16:45:23.778,743
10621,2021/08/08 16:45:28.768,743
10622,2021/08/08 16:45:33.781,743
10623,2021/08/08 16:45:38.783,743
10624,2021/08/08 16:45:43.803,743
10625,2021/08/08 16:45:48.788,743
10626,2021/08/08 16:45:53.796,743
10627,2021/08/08 16:45:58.851,743
10628,2021/08/08 16:46:03.912,744
10629,2021/08/08 16:46:08.943,744
10630,2021/08/08 16:46:13.895,744
10631,2021/08/08 16:46:18.773,744
10632,2021/08/08 16:46:23.794,745
10633,2021/08/08 16:46:28.766,746
10634,2021/08/08 16:46:33.780,746
10635,2021/08/08 16:46:38.812,747
10636,2021/08/08 16:46:43.827,748
10637,2021/08/08 16:46:48.772,749
10638,2021/08/08 16:46:53.850,749
10639,2021/08/08 16:46:59.012,750
10640,2021/08/08 16:47:03.767,751
10641,2021/08/08 16:47:08.765,752
10642,2021/08/08 16:47:13.775,752
10643,2021/08/08 16:47:18.775,753
10644,2021/08/08 16:47:23.772,753
10645,2021/08/08 16:47:28.777,755
10646,2021/08/08 16:47:33.780,755
10647,2021/08/08 16:47:38.771,757
10648,2021/08/08 16:47:43.776,757
10649,2021/08/08 16:47:48.778,758
10650,2021/08/08 16:47:53.836,759
10651,2021/08/08 16:47:58.768,760
10652,2021/08/08 16:48:03.773,760
10653,2021/08/08 16:48:08.776,761
10654,2021/08/08 16:48:13.789,761
10655,2021/08/08 16:48:18.781,761
10656,2021/08/08 16:48:23.781,761
10657,2021/08/08 16:48:28.775,762
10658,2021/08/08 16:48:33.778,763
10659,2021/08/08 16:48:38.803,763
10660,2021/08/08 16:48:43.771,764
10661,2021/08/08 16:48:48.775,764
10662,2021/08/08 16:48:53.772,764
10663,2021/08/08 16:48:58.793,765
10664,2021/08/08 16:49:03.787,766
10665,2021/08/08 16:49:08.786,767
10666,2021/08/08 16:49:13.785,767
10667,2021/08/08 16:49:18.785,767
10668,2021/08/08 16:49:23.785,768
10669,2021/08/08 16:49:28.817,768
10670,2021/08/08 16:49:33.785,769
10671,2021/08/08 16:49:38.772,769
10672,2021/08/08 16:49:43.772,769
10673,2021/08/08 16:49:48.806,769
10674,2021/08/08 16:49:53.786,770
10675,2021/08/08 16:49:58.849,770
10676,2021/08/08 16:50:03.863,770
10677,2021/08/08 16:50:08.800,771
10678,2021/08/08 16:50:13.962,772
10679,2021/08/08 16:50:18.779,772
10680,2021/08/08 16:50:23.821,773
10681,2021/08/08 16:50:28.800,774
10682,2021/08/08 16:50:33.780,775
10683,2021/08/08 16:50:38.768,776
10684,2021/08/08 16:50:43.866,776
10685,2021/08/08 16:50:48.772,776
10686,2021/08/08 16:50:53.776,777
10687,2021/08/08 16:50:58.796,778
10688,2021/08/08 16:51:03.799,778
10689,2021/08/08 16:51:08.801,778
10690,2021/08/08 16:51:13.795,779
10691,2021/08/08 16:51:18.772,779
10692,2021/08/08 16:51:23.848,779
10693,2021/08/08 16:51:28.904,780
10694,2021/08/08 16:51:33.775,781
10695,2021/08/08 16:51:38.774,782
10696,2021/08/08 16:51:43.781,782
10697,2021/08/08 16:51:48.774,783
10698,2021/08/08 16:51:53.760,784
10699,2021/08/08 16:51:58.788,784
10700,2021/08/08 16:52:03.776,785
10701,2021/08/08 16:52:08.772,785
10702,2021/08/08 16:52:13.768,787
10703,2021/08/08 16:52:18.770,787
10704,2021/08/08 16:52:23.773,788
10705,2021/08/08 16:52:28.770,788
10706,2021/08/08 16:52:33.778,790
10707,2021/08/08 16:52:38.773,790
10708,2021/08/08 16:52:43.778,790
10709,2021/08/08 16:52:48.787,791
10710,2021/08/08 16:52:53.775,791
10711,2021/08/08 16:52:58.812,792
10712,2021/08/08 16:53:03.828,792
10713,2021/08/08 16:53:08.760,792
10714,2021/08/08 16:53:13.771,792
10715,2021/08/08 16:53:18.773,793
10716,2021/08/08 16:53:23.787,793
10717,2021/08/08 16:53:28.782,793
10718,2021/08/08 16:53:33.783,793
10719,2021/08/08 16:53:38.783,794
10720,2021/08/08 16:53:43.782,794
10721,2021/08/08 16:53:48.768,794
10722,2021/08/08 16:53:53.774,795
10723,2021/08/08 16:53:58.769,795
10724,2021/08/08 16:54:03.773,795
10725,2021/08/08 16:54:08.774,796
10726,2021/08/08 16:54:13.775,796
10727,2021/08/08 16:54:18.787,796
10728,2021/08/08 16:54:23.781,797
10729,2021/08/08 16:54:28.778,798
10730,2021/08/08 16:54:33.778,798
10731,2021/08/08 16:54:38.759,799
10732,2021/08/08 16:54:43.859,800
10733,2021/08/08 16:54:48.768,802
10734,2021/08/08 16:54:53.811,802
10735,2021/08/08 16:54:58.815,804
10736,2021/08/08 16:55:03.910,804
10737,2021/08/08 16:55:08.822,805
10738,2021/08/08 16:55:13.981,805
10739,2021/08/08 16:55:18.768,806
10740,2021/08/08 16:55:23.875,807
10741,2021/08/08 16:55:28.767,808
10742,2021/08/08 16:55:33.771,808
10743,2021/08/08 16:55:38.786,810
10744,2021/08/08 16:55:43.781,810
10745,2021/08/08 16:55:48.795,812
10746,2021/08/08 16:55:53.793,812
10747,2021/08/08 16:55:58.868,813
10748,2021/08/08 16:56:03.879,814
10749,2021/08/08 16:56:08.870,815
10750,2021/08/08 16:56:13.771,815
10751,2021/08/08 16:56:18.779,815
10752,2021/08/08 16:56:23.820,815
10753,2021/08/08 16:56:28.769,816
10754,2021/08/08 16:56:33.783,816
10755,2021/08/08 16:56:38.768,817
10756,2021/08/08 16:56:43.770,818
10757,2021/08/08 16:56:48.768,819
10758,2021/08/08 16:56:53.769,819
10759,2021/08/08 16:56:58.811,821
10760,2021/08/08 16:57:03.770,821
10761,2021/08/08 16:57:08.775,821
10762,2021/08/08 16:57:13.783,822
10763,2021/08/08 16:57:18.767,822
10764,2021/08/08 16:57:23.770,822
10765,2021/08/08 16:57:28.763,822
10766,2021/08/08 16:57:33.806,823
10767,2021/08/08 16:57:38.800,823
10768,2021/08/08 16:57:43.858,824
10769,2021/08/08 16:57:48.774,824
10770,2021/08/08 16:57:53.775,824
10771,2021/08/08 16:57:58.769,824
10772,2021/08/08 16:58:03.782,825
10773,2021/08/08 16:58:08.784,825
10774,2021/08/08 16:58:13.771,825
10775,2021/08/08 16:58:18.773,826
10776,2021/08/08 16:58:23.833,827
10777,2021/08/08 16:58:28.788,827
10778,2021/08/08 16:58:33.771,828
10779,2021/08/08 16:58:38.792,828
10780,2021/08/08 16:58:43.766,829
10781,2021/08/08 16:58:48.779,829
10782,2021/08/08 16:58:53.781,830
10783,2021/08/08 16:58:58.780,830
10784,2021/08/08 16:59:03.782,830
10785,2021/08/08 16:59:08.781,830
10786,2021/08/08 16:59:13.791,830
10787,2021/08/08 16:59:18.791,831
10788,2021/08/08 16:59:23.800,831
10789,2021/08/08 16:59:28.833,831
10790,2021/08/08 16:59:33.770,832
10791,2021/08/08 16:59:38.803,833
10792,2021/08/08 16:59:43.791,833
10793,2021/08/08 16:59:48.844,834
10794,2021/08/08 16:59:53.771,835
10795,2021/08/08 16:59:58.789,835
10796,2021/08/08 17:00:03.800,836
10797,2021/08/08 17:00:08.794,836
10798,2021/08/08 17:00:13.765,838
10799,2021/08/08 17:00:18.843,838
10800,2021/08/08 17:00:23.790,839
10801,2021/08/08 17:00:28.770,839
10802,2021/08/08 17:00:33.817,839
10803,2021/08/08 17:00:38.836,840
10804,2021/08/08 17:00:43.829,841
10805,2021/08/08 17:00:48.761,841
10806,2021/08/08 17:00:53.883,841
10807,2021/08/08 17:00:58.807,842
10808,2021/08/08 17:01:03.779,842
10809,2021/08/08 17:01:08.792,842
10810,2021/08/08 17:01:13.822,842
10811,2021/08/08 17:01:18.784,843
10812,2021/08/08 17:01:23.764,844
10813,2021/08/08 17:01:28.778,844
10814,2021/08/08 17:01:33.776,845
10815,2021/08/08 17:01:38.796,845
10816,2021/08/08 17:01:43.796,847
10817,2021/08/08 17:01:48.822,847
10818,2021/08/08 17:01:53.774,848
10819,2021/08/08 17:01:58.792,848
10820,2021/08/08 17:02:03.807,849
10821,2021/08/08 17:02:08.817,850
10822,2021/08/08 17:02:13.820,850
10823,2021/08/08 17:02:18.769,851
10824,2021/08/08 17:02:23.767,851
10825,2021/08/08 17:02:28.773,851
10826,2021/08/08 17:02:33.770,852
10827,2021/08/08 17:02:38.778,852
10828,2021/08/08 17:02:43.771,853
10829,2021/08/08 17:02:48.773,853
10830,2021/08/08 17:02:53.777,853
10831,2021/08/08 17:02:58.772,854
10832,2021/08/08 17:03:03.765,855
10833,2021/08/08 17:03:08.833,855
10834,2021/08/08 17:03:13.839,855
10835,2021/08/08 17:03:18.775,856
10836,2021/08/08 17:03:23.778,856
10837,2021/08/08 17:03:28.772,857
10838,2021/08/08 17:03:33.775,857
10839,2021/08/08 17:03:38.770,858
10840,2021/08/08 17:03:43.799,858
10841,2021/08/08 17:03:48.784,859
10842,2021/08/08 17:03:53.773,859
10843,2021/08/08 17:03:58.788,859
10844,2021/08/08 17:04:03.797,860
10845,2021/08/08 17:04:08.770,861
10846,2021/08/08 17:04:13.763,861
10847,2021/08/08 17:04:18.768,862
10848,2021/08/08 17:04:23.781,862
10849,2021/08/08 17:04:28.775,862
10850,2021/08/08 17:04:33.776,863
10851,2021/08/08 17:04:38.778,864
10852,2021/08/08 17:04:43.775,864
10853,2021/08/08 17:04:48.775,865
10854,2021/08/08 17:04:53.780,865
10855,2021/08/08 17:04:58.773,865
10856,2021/08/08 17:05:03.771,866
10857,2021/08/08 17:05:08.777,866
10858,2021/08/08 17:05:13.759,867
10859,2021/08/08 17:05:18.766,868
10860,2021/08/08 17:05:23.770,868
10861,2021/08/08 17:05:28.780,869
10862,2021/08/08 17:05:33.785,869
10863,2021/08/08 17:05:38.771,870
10864,2021/08/08 17:05:43.838,871
10865,2021/08/08 17:05:48.849,872
10866,2021/08/08 17:05:53.820,873
10867,2021/08/08 17:05:58.862,873
10868,2021/08/08 17:06:03.767,874
10869,2021/08/08 17:06:08.825,875
10870,2021/08/08 17:06:13.777,875
10871,2021/08/08 17:06:18.782,876
10872,2021/08/08 17:06:23.866,877
10873,2021/08/08 17:06:28.778,878
10874,2021/08/08 17:06:33.778,877
10875,2021/08/08 17:06:38.794,877
10876,2021/08/08 17:06:43.804,877
10877,2021/08/08 17:06:48.772,877
10878,2021/08/08 17:06:53.848,878
10879,2021/08/08 17:06:58.805,878
10880,2021/08/08 17:07:03.826,879
10881,2021/08/08 17:07:08.868,879
10882,2021/08/08 17:07:13.865,879
10883,2021/08/08 17:07:18.841,880
10884,2021/08/08 17:07:23.841,881
10885,2021/08/08 17:07:28.881,881
10886,2021/08/08 17:07:33.845,882
10887,2021/08/08 17:07:38.838,882
10888,2021/08/08 17:07:43.779,883
10889,2021/08/08 17:07:48.768,884
10890,2021/08/08 17:07:53.781,884
10891,2021/08/08 17:07:58.775,884
10892,2021/08/08 17:08:03.759,885
10893,2021/08/08 17:08:08.760,886
10894,2021/08/08 17:08:13.761,886
10895,2021/08/08 17:08:18.774,886
10896,2021/08/08 17:08:23.776,886
10897,2021/08/08 17:08:28.780,886
10898,2021/08/08 17:08:33.775,886
10899,2021/08/08 17:08:38.773,887
10900,2021/08/08 17:08:43.762,887
10901,2021/08/08 17:08:48.781,887
10902,2021/08/08 17:08:53.780,888
10903,2021/08/08 17:08:58.776,888
10904,2021/08/08 17:09:03.795,889
10905,2021/08/08 17:09:08.780,889
10906,2021/08/08 17:09:13.791,889
10907,2021/08/08 17:09:18.766,890
10908,2021/08/08 17:09:23.776,890
10909,2021/08/08 17:09:28.815,891
10910,2021/08/08 17:09:33.841,892
10911,2021/08/08 17:09:38.759,892
10912,2021/08/08 17:09:43.764,893
10913,2021/08/08 17:09:48.775,893
10914,2021/08/08 17:09:53.779,894
10915,2021/08/08 17:09:58.777,895
10916,2021/08/08 17:10:03.778,895
10917,2021/08/08 17:10:08.777,895
10918,2021/08/08 17:10:13.768,895
10919,2021/08/08 17:10:18.780,896
10920,2021/08/08 17:10:23.788,896
10921,2021/08/08 17:10:28.797,896
10922,2021/08/08 17:10:33.803,897
10923,2021/08/08 17:10:38.764,898
10924,2021/08/08 17:10:43.795,898
10925,2021/08/08 17:10:48.768,899
10926,2021/08/08 17:10:53.781,898
10927,2021/08/08 17:10:58.779,900
10928,2021/08/08 17:11:03.774,900
10929,2021/08/08 17:11:08.762,900
10930,2021/08/08 17:11:13.769,900
10931,2021/08/08 17:11:18.762,900
10932,2021/08/08 17:11:23.790,901
10933,2021/08/08 17:11:28.848,901
10934,2021/08/08 17:11:33.865,901
10935,2021/08/08 17:11:38.777,901
10936,2021/08/08 17:11:43.767,903
10937,2021/08/08 17:11:48.776,903
10938,2021/08/08 17:11:53.799,903
10939,2021/08/08 17:11:58.814,903
10940,2021/08/08 17:12:03.775,904
10941,2021/08/08 17:12:08.817,905
10942,2021/08/08 17:12:13.821,905
10943,2021/08/08 17:12:18.775,906
10944,2021/08/08 17:12:23.772,906
10945,2021/08/08 17:12:28.771,906
10946,2021/08/08 17:12:33.768,907
10947,2021/08/08 17:12:38.779,908
10948,2021/08/08 17:12:43.775,908
10949,2021/08/08 17:12:48.775,909
10950,2021/08/08 17:12:53.776,909
10951,2021/08/08 17:12:58.777,911
10952,2021/08/08 17:13:03.772,912
10953,2021/08/08 17:13:08.781,913
10954,2021/08/08 17:13:13.794,915
10955,2021/08/08 17:13:18.797,917
10956,2021/08/08 17:13:23.798,919
10957,2021/08/08 17:13:28.764,922
10958,2021/08/08 17:13:33.781,924
10959,2021/08/08 17:13:38.780,926
10960,2021/08/08 17:13:43.782,928
10961,2021/08/08 17:13:48.778,930
10962,2021/08/08 17:13:53.802,931
10963,2021/08/08 17:13:58.812,933
10964,2021/08/08 17:14:03.802,934
10965,2021/08/08 17:14:08.795,936
10966,2021/08/08 17:14:13.769,938
10967,2021/08/08 17:14:18.780,938
10968,2021/08/08 17:14:23.774,939
10969,2021/08/08 17:14:28.767,940
10970,2021/08/08 17:14:33.880,940
10971,2021/08/08 17:14:38.787,939
10972,2021/08/08 17:14:43.768,939
10973,2021/08/08 17:14:48.769,940
10974,2021/08/08 17:14:53.798,941
10975,2021/08/08 17:14:58.780,941
10976,2021/08/08 17:15:03.779,941
10977,2021/08/08 17:15:08.775,941
10978,2021/08/08 17:15:13.812,941
10979,2021/08/08 17:15:18.772,941
10980,2021/08/08 17:15:23.802,941
10981,2021/08/08 17:15:28.800,941
10982,2021/08/08 17:15:33.881,941
10983,2021/08/08 17:15:38.768,940
10984,2021/08/08 17:15:43.882,941
10985,2021/08/08 17:15:48.794,940
10986,2021/08/08 17:15:53.775,940
10987,2021/08/08 17:15:58.764,940
10988,2021/08/08 17:16:03.789,940
10989,2021/08/08 17:16:08.855,940
10990,2021/08/08 17:16:13.771,941
10991,2021/08/08 17:16:18.774,941
10992,2021/08/08 17:16:23.820,941
10993,2021/08/08 17:16:28.772,941
10994,2021/08/08 17:16:33.805,942
10995,2021/08/08 17:16:38.772,943
10996,2021/08/08 17:16:43.796,943
10997,2021/08/08 17:16:48.795,944
10998,2021/08/08 17:16:53.810,945
10999,2021/08/08 17:16:58.781,946
11000,2021/08/08 17:17:03.776,947
11001,2021/08/08 17:17:08.770,947
11002,2021/08/08 17:17:13.929,948
11003,2021/08/08 17:17:18.779,949
11004,2021/08/08 17:17:23.816,949
11005,2021/08/08 17:17:28.786,950
11006,2021/08/08 17:17:33.818,950
11007,2021/08/08 17:17:38.807,952
11008,2021/08/08 17:17:43.878,952
11009,2021/08/08 17:17:48.753,952
11010,2021/08/08 17:17:53.775,952
11011,2021/08/08 17:17:58.788,953
11012,2021/08/08 17:18:03.773,953
11013,2021/08/08 17:18:08.775,953
11014,2021/08/08 17:18:13.770,954
11015,2021/08/08 17:18:18.757,954
11016,2021/08/08 17:18:23.758,954
11017,2021/08/08 17:18:28.776,954
11018,2021/08/08 17:18:33.768,954
11019,2021/08/08 17:18:38.771,955
11020,2021/08/08 17:18:43.770,955
11021,2021/08/08 17:18:48.782,956
11022,2021/08/08 17:18:53.817,957
11023,2021/08/08 17:18:58.784,958
11024,2021/08/08 17:19:03.883,959
11025,2021/08/08 17:19:08.765,960
11026,2021/08/08 17:19:13.818,962
11027,2021/08/08 17:19:18.835,963
11028,2021/08/08 17:19:23.798,964
11029,2021/08/08 17:19:28.788,965
11030,2021/08/08 17:19:33.768,965
11031,2021/08/08 17:19:38.775,965
11032,2021/08/08 17:19:43.763,966
11033,2021/08/08 17:19:48.769,966
11034,2021/08/08 17:19:53.769,966
11035,2021/08/08 17:19:58.778,967
11036,2021/08/08 17:20:03.824,968
11037,2021/08/08 17:20:08.825,968
11038,2021/08/08 17:20:13.887,968
11039,2021/08/08 17:20:18.867,969
11040,2021/08/08 17:20:23.784,970
11041,2021/08/08 17:20:28.898,971
11042,2021/08/08 17:20:33.775,971
11043,2021/08/08 17:20:38.784,973
11044,2021/08/08 17:20:43.824,973
11045,2021/08/08 17:20:48.810,973
11046,2021/08/08 17:20:53.784,974
11047,2021/08/08 17:20:58.772,974
11048,2021/08/08 17:21:03.924,975
11049,2021/08/08 17:21:08.940,975
11050,2021/08/08 17:21:13.768,976
11051,2021/08/08 17:21:18.775,976
11052,2021/08/08 17:21:23.862,976
11053,2021/08/08 17:21:28.763,976
11054,2021/08/08 17:21:33.763,977
11055,2021/08/08 17:21:38.788,977
11056,2021/08/08 17:21:43.776,978
11057,2021/08/08 17:21:48.777,979
11058,2021/08/08 17:21:53.793,979
11059,2021/08/08 17:21:58.910,979
11060,2021/08/08 17:22:03.892,980
11061,2021/08/08 17:22:08.841,980
11062,2021/08/08 17:22:14.021,982
11063,2021/08/08 17:22:18.770,982
11064,2021/08/08 17:22:23.770,983
11065,2021/08/08 17:22:28.776,984
11066,2021/08/08 17:22:33.778,985
11067,2021/08/08 17:22:38.782,986
11068,2021/08/08 17:22:43.770,986
11069,2021/08/08 17:22:48.781,986
11070,2021/08/08 17:22:53.777,987
11071,2021/08/08 17:22:58.777,987
11072,2021/08/08 17:23:03.770,987
11073,2021/08/08 17:23:08.773,987
11074,2021/08/08 17:23:13.772,988
11075,2021/08/08 17:23:18.773,988
11076,2021/08/08 17:23:23.768,988
11077,2021/08/08 17:23:28.773,989
11078,2021/08/08 17:23:33.774,988
11079,2021/08/08 17:23:38.767,989
11080,2021/08/08 17:23:43.777,990
11081,2021/08/08 17:23:48.767,990
11082,2021/08/08 17:23:53.780,991
11083,2021/08/08 17:23:58.797,991
11084,2021/08/08 17:24:03.798,991
11085,2021/08/08 17:24:08.782,992
11086,2021/08/08 17:24:13.831,992
11087,2021/08/08 17:24:18.771,992
11088,2021/08/08 17:24:23.802,993
11089,2021/08/08 17:24:28.782,993
11090,2021/08/08 17:24:33.771,993
11091,2021/08/08 17:24:38.769,994
11092,2021/08/08 17:24:43.775,994
11093,2021/08/08 17:24:48.810,994
11094,2021/08/08 17:24:53.821,995
11095,2021/08/08 17:24:58.838,996
11096,2021/08/08 17:25:03.830,997
11097,2021/08/08 17:25:08.831,998
11098,2021/08/08 17:25:13.823,998
11099,2021/08/08 17:25:18.815,999
11100,2021/08/08 17:25:23.843,1000
11101,2021/08/08 17:25:28.801,1001
11102,2021/08/08 17:25:33.778,1002
11103,2021/08/08 17:25:38.792,1002
11104,2021/08/08 17:25:43.772,1003
11105,2021/08/08 17:25:48.782,1004
11106,2021/08/08 17:25:53.785,1004
11107,2021/08/08 17:25:58.995,1005
11108,2021/08/08 17:26:03.771,1005
11109,2021/08/08 17:26:08.772,1007
11110,2021/08/08 17:26:13.771,1007
11111,2021/08/08 17:26:18.770,1007
11112,2021/08/08 17:26:23.780,1008
11113,2021/08/08 17:26:28.780,1010
11114,2021/08/08 17:26:33.781,1010
11115,2021/08/08 17:26:38.775,1011